SL-14 DEB, 45323

Orbit data source: Space-Track

SL-14 DEB, 45323 is space debris in LEO originally from a launch on Thu, 15 Aug 1991 UTC launched from the Plesetsk Missile And Space Complex (PKMTR). Debris objects in space refer to the collection of defunct objects orbiting the Earth. Examples of debris include non-operational satellites, rocket bodies, and fragments generated from explosions, collisions, or faulty payload assembly.

Loading next visibility...
Identifier
45323, 1991-056BM
Orbit
LEO
Country
Flag of CISCIS
Related business
Manufacturer
Unknown
Mission
Spacecraft
Bus & Motor
Unknown
Mass
Unknown
Launch date (UTC)
1991-08-15 (34 years ago)
Launch vehicle
Unknown
Launch site
Plesetsk Missile And Space Complex (PKMTR)
Object type
Payload
Rocket body
Debris
Shape & HBR
Unknown shape, 0.1 m
Radar Cross Section
Small (<0.1 m²)

Expand to show TLE details & history
Last TLE update: 15 hours ago

TLE from 15 hours ago
0 SL-14 DEB
1 45323U 91056BM  25346.76765341  .00000994  00000-0  24148-2 0  9990
2 45323  82.5288 260.1176 0001439  22.7292 337.3896 13.20727213278785
Epoch: 2025-12-12T18:25Z
TLE epoch observation values (Epoch: 2025-12-12T18:25:25.254Z)
Latitude
-0.00002°
Longitude
-97.94217°
Altitude
1,183.751 km
Speed
7.262 km/s
True Right ascension
17h 20m 28s
True Declination
0° 00' 00"
Sunlit
Object was in daylight at epoch
Visualization orbit readout
Latitude
Unknown
Longitude
Unknown
Altitude
Unknown
Speed
Unknown
Apparent Right ascension
Unknown
Apparent Declination
Unknown
Sunlit
N/A
Visualization observer readout
Local Sidereal Time
08:19:48
Azimuth
Unknown
Elevation
Unknown
Doppler factor
Unknown
Orbital elements
Apogee altitude
1,180.271 km
Perigee altitude
1,178.096 km
Semi-major axis
7,557.321 km
Eccentricity
0.00014
Inclination
82.5288°
RAAN
260.1176°
Arg. of periapsis
22.7292°
True anomaly
337.38326°
Mean anomaly
337.3896°
Eccentric anomaly
337.38643°
Mean motion
3.30363 °/min
Orbital period
108.97 mins
BSTAR
0.0024148
Loading maneuver chart data...
Computing Atmospheric mass density...
Loading historical data...
Loading historical data...
Loading historical data...
Loading historical data...
Loading historical data...
Loading historical data...
Loading historical data...

Documentation

Showing up to 5 results
|